User: anonymous   Login
Location: Deer Lodge Site
(39.6809°N, 119.9392°W)
Time: 09:56:23
(UTC-07:00)
Language:

CZ-4C R/B - Orbit

View from above orbital plane
View from above orbital plane
View from above satellite
View from above satellite

Ground track
Ground track

The orbit data is extracted from the following two-line orbital elements,

1 36416U 10009D   16239.79362233 -.00000084  00000-0  91299-5 0  9994
2 36416  63.4440 333.3364 0357941 357.1237   2.7738 13.69499451324057
Epoch (UTC): 26 August 2016 19:02:48
Eccentricity: 0.0357941
inclination: 63.4440°
perigee height: 737 km
apogee height: 1265 km
right ascension of ascending node: 333.3364°
argument of perigee: 357.1237°
revolutions per day: 13.69499451
mean anomaly at epoch: 2.7738°
orbit number at epoch: 32405

The dashed part of the orbit path shows where the satellite is in the earth's shadow,  

DLR